Regional Weather Roundup
Issued by NWS

Home | Current Version | Previous Version | Text Only | Print | Product List | Glossary On
Versions: 1 2 3 4 5 6 7 8 9 10 11 12 13 14 15 16 17 18 19 20 21 22 23 24 25 26 27 28 29 30 31 32 33 34 35 36 37 38 39 40 41 42 43 44 45 46 47 48 49 50
000
ASUS46 KSTO 261315
RWRCA

NORTHERN AND CENTRAL CA REGIONAL WEATHER ROUNDUP
NATIONAL WEATHER SERVICE SACRAMENTO CA
500 AM PST SUN FEB 26 2017

NOTE: FAIR INDICATES FEW OR NO CLOUDS BELOW 12,000 FEET WITH NO
SIGNIFICANT WEATHER AND/OR OBSTRUCTIONS TO VISIBILITY.

CAZ001-003-261400-
NORTHWEST AREA

CITY           SKY/WX    TMP DP  RH WIND       PRES   REMARKS
CRESCENT CITY  MOCLDY    39  37  92 E5        29.98F
UKIAH          CLEAR     32  30  92 CALM      30.00S
$$

CAZ006-505>513-261400-
BAY AREA

CITY           SKY/WX    TMP DP  RH WIND       PRES   REMARKS
SANTA ROSA     CLEAR     33  33 100 CALM      29.98F
SAN RAFAEL     N/A       38  MM  MM MISG
NAPA           CLEAR     34  31  88 CALM      29.99F
CONCORD        CLEAR     37  34  89 S3        30.00S
OAKLAND CITY   N/A      MM  MM  MM MISG
OAKLAND        CLEAR     42  37  82 CALM      30.00S
SAN FRAN CITY  N/A       45  MM  80 MISG
SAN FRAN ARPT  PTCLDY    42  36  79 W3        29.99S
LIVERMORE      CLEAR     36  31  82 N3        29.98S
HAYWARD        CLEAR     41  32  70 NE6       29.99S
REDWOOD CITY   N/A       38  MM  88 MISG
MOFFETT ARPT   CLEAR     40  35  83 CALM      30.00R
SAN JOSE ARPT  CLEAR     42  36  79 CALM      29.99R
$$
CAZ034-037-514>518-261400-
CENTRAL COAST

CITY           SKY/WX    TMP DP  RH WIND       PRES   REMARKS
WATSONVILLE    CLEAR     40  39  97 NW5       29.99R
SALINAS        CLEAR     42  39  89 CALM      29.98R
MONTEREY       CLEAR     41  37  86 E3        29.98R
SAN LUIS OBISP CLEAR     44  41  89 SW3       29.93F
SANTA MARIA    CLOUDY    43  43 100 E5        29.94F
$$
CAZ015-016-261400-
NORTHERN SACRAMENTO VALLEY

CITY           SKY/WX    TMP DP  RH WIND       PRES   REMARKS
REDDING        CLEAR     32  30  92 N3        29.94F
RED BLUFF      CLEAR     35  29  78 NW7       29.95F WCI  29
OROVILLE       CLEAR     36  32  85 CALM      29.97S
$$
CAZ016>018-261400-
SOUTHERN SACRAMENTO VALLEY

CITY           SKY/WX    TMP DP  RH WIND       PRES   REMARKS
AUBURN         CLEAR     36  30  80 E7        29.93F WCI  30
BEALE AFB      CLEAR     34  29  85 CALM      29.95F
LINCOLN        FAIR      32  32 100 E5        29.95F WCI  27
MARYSVILLE     CLEAR     36  33  89 CALM      29.97F
SAC INTL ARPT  CLEAR     37  35  92 NE5       29.96F WCI  33
MATHER AIRPORT CLEAR     32  32 100 CALM      29.97
DOWNTOWN SAC   N/A       38  MM  MM MISG
SAC EXEC ARPT  CLEAR     35  34  96 CALM      29.97F
VACAVILLE      CLEAR     34  32  92 CALM      29.98S
TRAVIS AFB     CLEAR     34  31  87 W8        29.95F WCI  27
$$
CAZ019>021-261400-
SAN JOAQUIN VALLEY

CITY           SKY/WX    TMP DP  RH WIND       PRES   REMARKS
STOCKTON       CLEAR     36  35  96 W3        29.97F
MODESTO        CLEAR     40  34  79 N3        29.98R
MERCED         CLEAR     34  32  92 CALM      29.97S
LEMOORE        CLEAR     34  32  92 E7        29.97F FOG     WCI  28
FRESNO         CLEAR     38  33  82 E6        29.98F WCI  33
HANFORD        MOCLDY    39  38  96 E5        29.98F FOG
PORTERVILLE    PTCLDY    40  37  89 NE5       29.99S
BAKERSFIELD    MOCLDY    46  37  71 CALM      29.96S
$$
CAZ011-012-071-261400-
NORTHERN MOUNTAINS

CITY           SKY/WX    TMP DP  RH WIND       PRES   REMARKS
YREKA          CLEAR     19  17  92 N3        29.90F
MOUNT SHASTA   CLEAR     20  15  81 NE3       29.85F
ALTURAS        CLEAR     13  10  88 NE5       29.83F WCI   5
$$
CAZ011-012-071-261400-
SIERRA NEVADA MTNS

CITY           SKY/WX    TMP DP  RH WIND       PRES   REMARKS
BLUE CANYON    PTCLDY    27  17  66 SE3       29.86F
TRUCKEE        FOG        9   5  85 CALM      29.88S VSB 1/4
TAHOE VLY ARPT PTCLDY     9   5  84 S8        29.84F WCI  -3
MAMMOTH LAKES  FAIR       8   1  72 CALM      29.86S
$$



USA.gov is the U.S. government's official web portal to all federal, state and local government web resources and services.